This is the latest recevied weather packets stored in our database for station/object KD0KHX-10. If no packets are shown the sender has not sent any weather packets the latest 10 day(s).
| Time | Temp. | Humidity | Pressure | Rain* | Wind** | Luminosity | Snow |
|---|---|---|---|---|---|---|---|
| 1777756338 | 21.11° C | 28% | 1012.2 hPa | 0 mm | - | - | - |
| 1777755903 | 20.56° C | 28% | 1012.3 hPa | 0 mm | - | - | - |
| 1777755873 | 20.56° C | 28% | 1012.3 hPa | 0 mm | - | - | - |
| 1777755572 | 20° C | 29% | 1012.4 hPa | 0 mm | - | - | - |
| 1777753773 | 20° C | 29% | 1013.1 hPa | 0 mm | - | - | - |
| 1777753203 | 20° C | 29% | 1013.2 hPa | 0 mm | - | - | - |
| 1777752903 | 19.44° C | 29% | 1013.3 hPa | 0 mm | - | - | - |
| 1777752603 | 19.44° C | 30% | 1013.4 hPa | 0 mm | - | - | - |
| 1777751973 | 18.89° C | 31% | 1013.5 hPa | 0 mm | - | - | - |
| 1777750503 | 18.89° C | 32% | 1013.9 hPa | 0 mm | - | - | - |
| 1777750203 | 18.89° C | 32% | 1014 hPa | 0 mm | - | - | - |
| 1777750173 | 18.89° C | 32% | 1014 hPa | 0 mm | - | - | - |
| 1777749272 | 18.33° C | 34% | 1014.2 hPa | 0 mm | - | - | - |
| 1777747638 | 17.22° C | 35% | 1014.7 hPa | 0 mm | - | - | - |
| 1777746872 | 17.22° C | 37% | 1014.8 hPa | 0 mm | - | - | - |
| 1777746573 | 17.22° C | 37% | 1014.9 hPa | 0 mm | - | - | - |
| 1777745672 | 16.67° C | 38% | 1015.1 hPa | 0 mm | - | - | - |
| 1777739703 | 13.33° C | 46% | 1016.3 hPa | 0 mm | - | - | - |
| 1777739538 | 13.33° C | 46% | 1016.3 hPa | 0 mm | - | - | - |
| 1777738938 | 12.78° C | 48% | 1016.4 hPa | 0 mm | - | - | - |
| 1777738172 | 12.22° C | 49% | 1016.6 hPa | 0 mm | - | - | - |
| 1777737707 | 12.22° C | 50% | 1016.6 hPa | 0 mm | - | - | - |
| 1777737003 | 11.67° C | 50% | 1016.7 hPa | 0 mm | - | - | - |
| 1777736673 | 11.67° C | 51% | 1016.6 hPa | 0 mm | - | - | - |
| 1777736372 | 11.67° C | 52% | 1016.7 hPa | 0 mm | - | - | - |
* Rain latest hour (hover to see other rain measurements)
** Current wind speed in m/s (hover to see current wind gust speed)